FDX5388 KOAK-PANC

Flight info

Callsign FDX5388
Flight time 4h 12m
Altitude 34000
Route OAK6 OAK GRTFL ENI FOT BOXER B453 MDO PTERS3
Aircraft B77L/H-SDE1E2E3FGHIJ2J3J4J5M1RWXY/LB1D1

Departure

Time 2026-05-07 00:52
Airport San Francisco Bay Oakland International Airport (KOAK)

Arrival

Time 2026-05-07 05:04
Airport Ted Stevens Anchorage International Airport (PANC)
Time Latitude Longitude Altitude Speed Heading
2026-05-07 00:14 37.71793 -122.21674 20 ft 0 kts 39°
2026-05-07 00:42 37.71783 -122.21686 20 ft 2 kts 57°
2026-05-07 00:42 37.71777 -122.21703 20 ft 2 kts 75°
2026-05-07 00:42 37.71774 -122.21722 20 ft 2 kts 92°
2026-05-07 00:43 37.71777 -122.21740 20 ft 2 kts 110°
2026-05-07 00:43 37.71783 -122.21757 20 ft 2 kts 127°
2026-05-07 00:43 37.71788 -122.21765 20 ft 0 kts 129°
2026-05-07 00:46 37.71784 -122.21758 20 ft 5 kts 129°
2026-05-07 00:46 37.71736 -122.21689 20 ft 11 kts 148°
2026-05-07 00:46 37.71668 -122.21719 20 ft 12 kts 220°
2026-05-07 00:47 37.71590 -122.21825 19 ft 21 kts 229°
2026-05-07 00:47 37.71492 -122.21962 19 ft 19 kts 229°
2026-05-07 00:47 37.71403 -122.22083 19 ft 19 kts 228°
2026-05-07 00:47 37.71307 -122.22215 19 ft 21 kts 224°
2026-05-07 00:48 37.71188 -122.22347 19 ft 23 kts 221°
2026-05-07 00:48 37.71091 -122.22423 19 ft 12 kts 179°
2026-05-07 00:48 37.71019 -122.22356 19 ft 17 kts 131°
2026-05-07 00:48 37.70923 -122.22216 19 ft 21 kts 131°
2026-05-07 00:49 37.70831 -122.22079 19 ft 18 kts 129°
2026-05-07 00:49 37.70751 -122.21957 19 ft 16 kts 130°
2026-05-07 00:49 37.70679 -122.21849 19 ft 15 kts 130°
2026-05-07 00:49 37.70592 -122.21717 19 ft 24 kts 129°
2026-05-07 00:50 37.70484 -122.21554 19 ft 22 kts 129°
2026-05-07 00:50 37.70379 -122.21418 19 ft 20 kts 150°
2026-05-07 00:50 37.70268 -122.21362 18 ft 12 kts 162°
2026-05-07 00:50 37.70203 -122.21389 19 ft 8 kts 216°
2026-05-07 00:51 37.70174 -122.21444 20 ft 9 kts 269°
2026-05-07 00:51 37.70208 -122.21516 19 ft 4 kts 310°
2026-05-07 00:51 37.70228 -122.21546 20 ft 8 kts 310°
2026-05-07 00:51 37.70427 -122.21840 19 ft 79 kts 309°
2026-05-07 00:52 37.70927 -122.22600 20 ft 141 kts 309°
2026-05-07 00:52 37.71645 -122.23666 219 ft 171 kts 307°
2026-05-07 00:52 37.72368 -122.24885 818 ft 179 kts 302°
2026-05-07 00:52 37.72993 -122.26240 1598 ft 182 kts 304°
2026-05-07 00:53 37.73786 -122.27551 2289 ft 192 kts 309°
2026-05-07 00:53 37.74620 -122.28860 3105 ft 195 kts 309°
2026-05-07 00:53 37.75510 -122.30159 3710 ft 201 kts 322°
2026-05-07 00:53 37.76848 -122.30888 3900 ft 220 kts 356°
2026-05-07 00:54 37.78448 -122.30785 4180 ft 237 kts
2026-05-07 00:54 37.80158 -122.30559 4537 ft 253 kts
2026-05-07 00:54 37.81942 -122.30321 5069 ft 261 kts
2026-05-07 00:54 37.83731 -122.30084 5726 ft 263 kts
2026-05-07 00:55 37.85591 -122.29834 6382 ft 266 kts
2026-05-07 00:55 37.87451 -122.29584 7020 ft 268 kts
2026-05-07 00:55 37.89308 -122.29335 7624 ft 271 kts
2026-05-07 00:55 37.91203 -122.29079 8197 ft 274 kts
2026-05-07 00:56 37.93084 -122.28830 8754 ft 277 kts
2026-05-07 00:56 37.95039 -122.28571 9319 ft 280 kts
2026-05-07 00:56 37.96999 -122.28309 9876 ft 283 kts
2026-05-07 00:56 37.99002 -122.28041 10266 ft 293 kts
2026-05-07 00:57 38.01084 -122.27761 10448 ft 310 kts
2026-05-07 00:57 38.03292 -122.27464 10642 ft 327 kts
2026-05-07 00:57 38.05622 -122.27150 10851 ft 344 kts
2026-05-07 00:57 38.08085 -122.26817 11107 ft 360 kts
2026-05-07 00:58 38.10652 -122.26470 11416 ft 374 kts
2026-05-07 00:58 38.13268 -122.26118 11951 ft 382 kts
2026-05-07 00:58 38.15934 -122.25758 12644 ft 385 kts
2026-05-07 00:58 38.18622 -122.25394 13330 ft 390 kts
2026-05-07 00:59 38.24035 -122.24661 14854 ft 397 kts
2026-05-07 00:59 38.26799 -122.24298 15724 ft 400 kts
2026-05-07 00:59 38.29579 -122.24306 16538 ft 404 kts 356°
2026-05-07 01:00 38.32360 -122.24881 17356 ft 409 kts 347°
2026-05-07 01:00 38.35106 -122.26050 18127 ft 414 kts 338°
2026-05-07 01:00 38.37656 -122.27775 18889 ft 419 kts 328°
2026-05-07 01:00 38.39980 -122.30045 19647 ft 425 kts 319°
2026-05-07 01:01 38.42016 -122.32790 20388 ft 429 kts 312°
2026-05-07 01:01 38.43959 -122.35719 21142 ft 432 kts 312°
2026-05-07 01:01 38.45898 -122.38640 21849 ft 435 kts 312°
2026-05-07 01:01 38.47869 -122.41592 22551 ft 438 kts 312°
2026-05-07 01:02 38.49850 -122.44545 23222 ft 441 kts 313°
2026-05-07 01:02 38.51848 -122.47515 23836 ft 445 kts 313°
2026-05-07 01:02 38.53900 -122.50561 24425 ft 450 kts 313°
2026-05-07 01:02 38.55948 -122.53598 25005 ft 454 kts 313°
2026-05-07 01:03 38.57991 -122.56628 25596 ft 457 kts 313°
2026-05-07 01:03 38.60072 -122.59711 26195 ft 460 kts 313°
2026-05-07 01:03 38.62168 -122.62820 26786 ft 464 kts 313°
2026-05-07 01:03 38.64279 -122.65953 27358 ft 467 kts 312°
2026-05-07 01:04 38.66410 -122.69118 27931 ft 471 kts 312°
2026-05-07 01:04 38.68560 -122.72314 28508 ft 475 kts 312°
2026-05-07 01:04 38.70711 -122.75513 29083 ft 478 kts 312°
2026-05-07 01:04 38.72889 -122.78756 29737 ft 479 kts 312°
2026-05-07 01:05 38.75044 -122.81968 30543 ft 476 kts 312°
2026-05-07 01:05 38.77177 -122.85151 31351 ft 472 kts 312°
2026-05-07 01:05 38.79311 -122.88339 32104 ft 469 kts 311°
2026-05-07 01:05 38.81417 -122.91487 32748 ft 467 kts 311°
2026-05-07 01:06 38.83538 -122.94660 33343 ft 466 kts 311°
2026-05-07 01:06 38.85624 -122.97783 33949 ft 464 kts 311°
2026-05-07 01:06 38.87732 -123.00943 34087 ft 466 kts 311°
2026-05-07 01:07 38.91898 -123.07197 34097 ft 461 kts 311°
2026-05-07 01:07 38.96067 -123.13467 34109 ft 462 kts 311°
2026-05-07 01:08 39.00227 -123.19738 34100 ft 462 kts 311°
2026-05-07 01:08 39.04568 -123.25773 34118 ft 462 kts 320°
2026-05-07 01:09 39.09961 -123.30190 34108 ft 461 kts 335°
2026-05-07 01:09 39.15830 -123.33575 34119 ft 462 kts 335°
2026-05-07 01:10 39.21675 -123.36942 34115 ft 461 kts 335°
2026-05-07 01:10 39.27532 -123.40336 34107 ft 460 kts 335°
2026-05-07 01:11 39.33384 -123.43739 34118 ft 461 kts 335°
2026-05-07 01:11 39.39216 -123.47141 34124 ft 461 kts 335°
2026-05-07 01:12 39.45028 -123.50539 34125 ft 460 kts 335°
2026-05-07 01:12 39.50859 -123.53956 34131 ft 461 kts 335°
2026-05-07 01:13 39.56726 -123.57400 34135 ft 460 kts 335°
2026-05-07 01:13 39.62546 -123.60824 34144 ft 461 kts 335°
2026-05-07 01:14 39.68348 -123.64243 34143 ft 460 kts 335°
2026-05-07 01:14 39.74184 -123.67690 34153 ft 460 kts 334°
2026-05-07 01:15 39.80004 -123.71132 34153 ft 461 kts 334°
2026-05-07 01:15 39.85620 -123.74459 34143 ft 459 kts 334°
2026-05-07 01:16 39.90633 -123.77436 34136 ft 459 kts 334°
2026-05-07 01:16 39.96471 -123.80907 34134 ft 459 kts 334°
2026-05-07 01:17 40.02267 -123.84360 34138 ft 458 kts 334°
2026-05-07 01:17 40.08060 -123.87818 34138 ft 461 kts 334°
2026-05-07 01:18 40.13890 -123.91305 34138 ft 461 kts 334°
2026-05-07 01:18 40.19679 -123.94774 34141 ft 460 kts 334°
2026-05-07 01:19 40.25529 -123.98286 34142 ft 460 kts 334°
2026-05-07 01:19 40.31309 -124.01762 34139 ft 459 kts 334°
2026-05-07 01:20 40.37106 -124.05256 34148 ft 459 kts 334°
2026-05-07 01:20 40.42905 -124.08757 34155 ft 460 kts 334°
2026-05-07 01:21 40.48706 -124.12265 34165 ft 460 kts 334°
2026-05-07 01:21 40.54509 -124.15781 34170 ft 460 kts 334°
2026-05-07 01:22 40.60345 -124.19327 34171 ft 461 kts 334°
2026-05-07 01:22 40.66138 -124.22885 34159 ft 461 kts 332°
2026-05-07 01:23 40.71501 -124.27460 34163 ft 460 kts 325°
2026-05-07 01:23 40.76760 -124.32278 34171 ft 461 kts 325°
2026-05-07 01:24 40.82024 -124.37112 34167 ft 462 kts 325°
2026-05-07 01:24 40.87281 -124.41951 34166 ft 461 kts 325°
2026-05-07 01:25 40.92528 -124.46789 34168 ft 463 kts 325°
2026-05-07 01:25 40.97813 -124.51672 34161 ft 461 kts 325°
2026-05-07 01:26 41.03049 -124.56519 34158 ft 463 kts 325°
2026-05-07 01:26 41.08339 -124.61427 34159 ft 464 kts 325°
2026-05-07 01:27 41.13611 -124.66327 34167 ft 462 kts 324°
2026-05-07 01:27 41.18856 -124.71212 34169 ft 464 kts 324°
2026-05-07 01:28 41.24131 -124.76135 34168 ft 463 kts 324°
2026-05-07 01:28 41.29401 -124.81063 34170 ft 464 kts 325°
2026-05-07 01:29 41.34640 -124.85972 34170 ft 464 kts 325°
2026-05-07 01:29 41.39901 -124.90910 34171 ft 464 kts 325°
2026-05-07 01:30 41.45174 -124.95872 34173 ft 463 kts 325°
2026-05-07 01:30 41.50444 -125.00840 34171 ft 465 kts 325°
2026-05-07 01:31 41.55721 -125.05823 34175 ft 464 kts 325°
2026-05-07 01:31 41.60968 -125.10791 34177 ft 464 kts 325°
2026-05-07 01:32 41.66233 -125.15784 34176 ft 465 kts 325°
2026-05-07 01:32 41.71506 -125.20795 34175 ft 464 kts 325°
2026-05-07 01:33 41.76741 -125.25781 34176 ft 465 kts 325°
2026-05-07 01:33 41.82024 -125.30823 34176 ft 465 kts 325°
2026-05-07 01:34 41.87264 -125.35834 34178 ft 464 kts 325°
2026-05-07 01:34 41.92515 -125.40866 34176 ft 465 kts 326°
2026-05-07 01:35 41.97780 -125.45921 34181 ft 465 kts 326°
2026-05-07 01:35 42.03015 -125.50959 34181 ft 464 kts 326°
2026-05-07 01:36 42.08231 -125.55989 34182 ft 465 kts 326°
2026-05-07 01:36 42.13480 -125.61060 34190 ft 465 kts 325°
2026-05-07 01:37 42.18715 -125.66129 34191 ft 465 kts 325°
2026-05-07 01:37 42.23950 -125.71208 34190 ft 465 kts 325°
2026-05-07 01:38 42.29183 -125.76296 34191 ft 465 kts 325°
2026-05-07 01:38 42.34430 -125.81408 34196 ft 465 kts 325°
2026-05-07 01:39 42.39658 -125.86512 34198 ft 465 kts 324°
2026-05-07 01:39 42.44877 -125.91618 34199 ft 466 kts 324°
2026-05-07 01:40 42.50136 -125.96774 34197 ft 465 kts 324°
2026-05-07 01:40 42.55341 -126.01888 34194 ft 465 kts 324°
2026-05-07 01:41 42.60581 -126.07048 34192 ft 465 kts 324°
2026-05-07 01:41 42.65802 -126.12200 34193 ft 466 kts 324°
2026-05-07 01:42 42.71047 -126.17344 34190 ft 465 kts 327°
2026-05-07 01:42 42.76775 -126.21395 34201 ft 465 kts 335°
2026-05-07 01:43 42.82552 -126.25130 34205 ft 464 kts 335°
2026-05-07 01:43 42.88411 -126.28941 34203 ft 464 kts 335°
2026-05-07 01:44 42.94223 -126.32739 34208 ft 465 kts 334°
2026-05-07 01:44 43.00011 -126.36534 34204 ft 465 kts 334°
2026-05-07 01:45 43.05867 -126.40385 34208 ft 465 kts 334°
2026-05-07 01:45 43.11664 -126.44204 34209 ft 464 kts 334°
2026-05-07 01:46 43.17470 -126.48037 34218 ft 465 kts 334°
2026-05-07 01:46 43.23252 -126.51865 34220 ft 464 kts 334°
2026-05-07 01:47 43.29046 -126.55708 34216 ft 464 kts 334°
2026-05-07 01:47 43.34835 -126.59557 34220 ft 465 kts 334°
2026-05-07 01:48 43.40658 -126.63436 34219 ft 464 kts 334°
2026-05-07 01:48 43.46434 -126.67299 34224 ft 464 kts 333°
2026-05-07 01:49 43.52209 -126.71193 34227 ft 464 kts 333°
2026-05-07 01:49 43.57976 -126.75089 34227 ft 463 kts 333°
2026-05-07 01:50 43.63745 -126.78994 34229 ft 464 kts 333°
2026-05-07 01:50 43.69548 -126.82931 34231 ft 464 kts 333°
2026-05-07 01:51 43.75317 -126.86852 34230 ft 464 kts 333°
2026-05-07 01:51 43.81091 -126.90785 34225 ft 463 kts 333°
2026-05-07 01:52 43.86821 -126.94697 34231 ft 462 kts 333°
2026-05-07 01:52 43.92600 -126.98650 34247 ft 462 kts 333°
2026-05-07 01:53 43.98347 -127.02591 34243 ft 463 kts 333°
2026-05-07 01:53 44.04142 -127.06573 34250 ft 464 kts 333°
2026-05-07 01:54 44.09892 -127.10533 34253 ft 464 kts 333°
2026-05-07 01:54 44.15653 -127.14508 34257 ft 463 kts 333°
2026-05-07 01:55 44.21404 -127.18487 34256 ft 461 kts 332°
2026-05-07 01:55 44.27141 -127.22464 34256 ft 463 kts 332°
2026-05-07 01:56 44.32880 -127.26450 34255 ft 461 kts 332°
2026-05-07 01:56 44.38622 -127.30448 34255 ft 462 kts 332°
2026-05-07 01:57 44.44363 -127.34454 34256 ft 462 kts 332°
2026-05-07 01:57 44.50081 -127.38452 34257 ft 462 kts 332°
2026-05-07 01:58 44.55815 -127.42471 34257 ft 461 kts 332°
2026-05-07 01:58 44.61559 -127.46506 34255 ft 462 kts 332°
2026-05-07 01:59 44.67296 -127.50544 34250 ft 461 kts 332°
2026-05-07 01:59 44.73027 -127.54588 34258 ft 461 kts 332°
2026-05-07 02:00 44.78711 -127.58607 34263 ft 462 kts 332°
2026-05-07 02:00 44.84451 -127.62675 34263 ft 460 kts 332°
2026-05-07 02:01 44.90172 -127.66740 34272 ft 461 kts 331°
2026-05-07 02:01 44.95845 -127.70779 34269 ft 460 kts 331°
2026-05-07 02:02 45.01539 -127.74840 34264 ft 460 kts 331°
2026-05-07 02:02 45.07248 -127.78921 34268 ft 461 kts 331°
2026-05-07 02:03 45.12983 -127.83031 34277 ft 460 kts 331°
2026-05-07 02:03 45.18631 -127.87088 34272 ft 459 kts 330°
2026-05-07 02:04 45.24307 -127.91175 34274 ft 458 kts 330°
2026-05-07 02:04 45.30016 -127.95294 34274 ft 460 kts 330°
2026-05-07 02:05 45.35686 -127.99394 34277 ft 458 kts 330°
2026-05-07 02:05 45.41335 -128.03490 34277 ft 458 kts 330°
2026-05-07 02:06 45.47008 -128.07610 34275 ft 459 kts 330°
2026-05-07 02:06 45.52699 -128.11754 34278 ft 458 kts 330°
2026-05-07 02:07 45.58335 -128.15868 34280 ft 458 kts 330°
2026-05-07 02:07 45.66840 -128.22092 34281 ft 459 kts 330°
2026-05-07 02:08 45.72498 -128.26244 34280 ft 458 kts 330°
2026-05-07 02:08 45.78132 -128.30389 34280 ft 458 kts 330°
2026-05-07 02:09 45.83791 -128.34561 34281 ft 458 kts 329°
2026-05-07 02:09 45.89448 -128.38742 34279 ft 458 kts 330°
2026-05-07 02:10 45.95075 -128.42909 34282 ft 459 kts 329°
2026-05-07 02:10 46.00743 -128.47118 34279 ft 459 kts 329°
2026-05-07 02:11 46.06381 -128.51314 34275 ft 459 kts 329°
2026-05-07 02:11 46.12029 -128.55525 34274 ft 458 kts 329°
2026-05-07 02:12 46.17683 -128.59753 34273 ft 458 kts 329°
2026-05-07 02:12 46.23341 -128.63994 34276 ft 458 kts 329°
2026-05-07 02:13 46.28988 -128.68234 34281 ft 457 kts 328°
2026-05-07 02:13 46.34615 -128.72472 34288 ft 458 kts 329°
2026-05-07 02:14 46.40254 -128.76727 34286 ft 458 kts 328°
2026-05-07 02:14 46.45874 -128.80978 34291 ft 458 kts 329°
2026-05-07 02:15 46.51512 -128.85252 34290 ft 459 kts 328°
2026-05-07 02:15 46.57167 -128.89551 34293 ft 458 kts 328°
2026-05-07 02:16 46.62791 -128.93834 34293 ft 458 kts 328°
2026-05-07 02:16 46.68434 -128.98143 34290 ft 459 kts 328°
2026-05-07 02:17 46.74051 -129.02443 34282 ft 459 kts 328°
2026-05-07 02:17 46.79686 -129.06766 34277 ft 458 kts 328°
2026-05-07 02:18 46.85298 -129.11083 34278 ft 459 kts 328°
2026-05-07 02:18 46.90949 -129.15439 34282 ft 459 kts 328°
2026-05-07 02:19 46.96582 -129.19791 34277 ft 460 kts 328°
2026-05-07 02:19 47.02224 -129.24161 34287 ft 461 kts 328°
2026-05-07 02:20 47.07893 -129.28563 34292 ft 460 kts 328°
2026-05-07 02:20 47.13531 -129.32951 34297 ft 460 kts 328°
2026-05-07 02:21 47.19143 -129.37329 34298 ft 459 kts 328°
2026-05-07 02:21 47.24773 -129.41733 34297 ft 459 kts 328°
2026-05-07 02:22 47.30386 -129.46133 34295 ft 460 kts 328°
2026-05-07 02:22 47.36054 -129.50589 34298 ft 460 kts 328°
2026-05-07 02:23 47.41672 -129.55014 34296 ft 460 kts 328°
2026-05-07 02:23 47.47310 -129.59467 34293 ft 460 kts 328°
2026-05-07 02:24 47.52947 -129.63930 34293 ft 461 kts 327°
2026-05-07 02:24 47.58574 -129.68396 34301 ft 460 kts 327°
2026-05-07 02:25 47.64175 -129.72852 34300 ft 459 kts 327°
2026-05-07 02:25 47.69805 -129.77344 34301 ft 461 kts 327°
2026-05-07 02:26 47.75446 -129.81839 34299 ft 460 kts 327°
2026-05-07 02:26 47.81031 -129.86299 34298 ft 459 kts 327°
2026-05-07 02:27 47.86656 -129.90805 34297 ft 461 kts 326°
2026-05-07 02:27 47.92322 -129.95352 34300 ft 461 kts 326°
2026-05-07 02:28 47.97965 -129.99893 34311 ft 462 kts 326°
2026-05-07 02:28 48.03567 -130.04413 34318 ft 460 kts 326°
2026-05-07 02:29 48.09228 -130.08993 34317 ft 461 kts 326°
2026-05-07 02:29 48.14816 -130.13524 34314 ft 460 kts 326°
2026-05-07 02:30 48.20432 -130.18089 34313 ft 461 kts 326°
2026-05-07 02:30 48.26084 -130.22696 34310 ft 460 kts 326°
2026-05-07 02:31 48.31676 -130.27267 34311 ft 461 kts 326°
2026-05-07 02:31 48.37292 -130.31869 34313 ft 461 kts 326°
2026-05-07 02:32 48.42909 -130.36482 34315 ft 460 kts 326°
2026-05-07 02:32 48.48505 -130.41090 34312 ft 459 kts 326°
2026-05-07 02:33 48.54089 -130.45702 34311 ft 460 kts 326°
2026-05-07 02:33 48.59685 -130.50333 34309 ft 457 kts 325°
2026-05-07 02:34 48.65241 -130.54944 34310 ft 459 kts 325°
2026-05-07 02:34 48.70787 -130.59558 34316 ft 458 kts 325°
2026-05-07 02:35 48.76364 -130.64210 34319 ft 457 kts 325°
2026-05-07 02:35 48.81912 -130.68849 34335 ft 456 kts 324°
2026-05-07 02:36 48.87461 -130.73502 34336 ft 457 kts 324°
2026-05-07 02:36 48.92792 -130.77982 34336 ft 456 kts 324°
2026-05-07 02:37 48.98331 -130.82651 34337 ft 456 kts 324°
2026-05-07 02:37 49.03845 -130.87308 34339 ft 454 kts 324°
2026-05-07 02:38 49.09362 -130.91983 34334 ft 455 kts 324°
2026-05-07 02:38 49.14872 -130.96663 34334 ft 455 kts 324°
2026-05-07 02:39 49.20367 -131.01341 34336 ft 454 kts 323°
2026-05-07 02:39 49.25875 -131.06044 34334 ft 454 kts 323°
2026-05-07 02:40 49.31369 -131.10747 34336 ft 455 kts 324°
2026-05-07 02:40 49.36865 -131.15463 34332 ft 454 kts 323°
2026-05-07 02:41 49.42374 -131.20201 34324 ft 452 kts 323°
2026-05-07 02:41 49.47863 -131.24937 34322 ft 454 kts 323°
2026-05-07 02:42 49.53336 -131.29671 34320 ft 454 kts 323°
2026-05-07 02:42 49.58823 -131.34427 34318 ft 452 kts 323°
2026-05-07 02:43 49.64254 -131.39151 34317 ft 454 kts 323°
2026-05-07 02:43 49.69736 -131.43926 34314 ft 450 kts 323°
2026-05-07 02:44 49.75175 -131.48680 34314 ft 451 kts 323°
2026-05-07 02:44 49.80599 -131.53432 34321 ft 449 kts 323°
2026-05-07 02:45 49.86038 -131.58209 34327 ft 450 kts 323°
2026-05-07 02:45 49.91460 -131.62984 34323 ft 449 kts 323°
2026-05-07 02:46 49.96893 -131.67784 34341 ft 451 kts 322°
2026-05-07 02:46 50.02316 -131.72592 34341 ft 449 kts 322°
2026-05-07 02:47 50.07696 -131.77425 34339 ft 447 kts 322°
2026-05-07 02:47 50.12956 -131.82163 34334 ft 447 kts 322°
2026-05-07 02:48 50.18348 -131.87028 34332 ft 445 kts 322°
2026-05-07 02:48 50.23643 -131.92009 34337 ft 446 kts 320°
2026-05-07 02:49 50.28852 -131.97139 34333 ft 443 kts 320°
2026-05-07 02:49 50.34055 -132.02264 34329 ft 445 kts 320°
2026-05-07 02:50 50.39276 -132.07410 34334 ft 446 kts 320°
2026-05-07 02:50 50.44492 -132.12558 34328 ft 445 kts 320°
2026-05-07 02:51 50.49737 -132.17747 34327 ft 446 kts 320°
2026-05-07 02:51 50.54940 -132.22905 34324 ft 445 kts 320°
2026-05-07 02:52 50.60184 -132.28119 34323 ft 445 kts 320°
2026-05-07 02:52 50.65394 -132.33313 34329 ft 447 kts 320°
2026-05-07 02:53 50.70650 -132.38564 34321 ft 445 kts 320°
2026-05-07 02:53 50.75871 -132.43797 34335 ft 448 kts 320°
2026-05-07 02:54 50.81120 -132.49071 34333 ft 447 kts 320°
2026-05-07 02:54 50.86324 -132.54314 34337 ft 449 kts 320°
2026-05-07 02:55 50.91582 -132.59625 34338 ft 448 kts 320°
2026-05-07 02:55 50.96822 -132.64932 34333 ft 446 kts 320°
2026-05-07 02:56 51.02055 -132.70250 34339 ft 449 kts 319°
2026-05-07 02:56 51.07253 -132.75554 34335 ft 446 kts 319°
2026-05-07 02:57 51.12466 -132.80890 34319 ft 446 kts 319°
2026-05-07 02:57 51.17690 -132.86252 34319 ft 446 kts 319°
2026-05-07 02:58 51.22889 -132.91602 34315 ft 446 kts 319°
2026-05-07 02:58 51.28104 -132.96983 34321 ft 449 kts 319°
2026-05-07 02:59 51.33287 -133.02345 34315 ft 447 kts 319°
2026-05-07 02:59 51.38503 -133.07758 34309 ft 447 kts 319°
2026-05-07 03:00 51.43684 -133.13147 34294 ft 448 kts 319°
2026-05-07 03:00 51.48876 -133.18564 34315 ft 446 kts 319°
2026-05-07 03:01 51.54045 -133.23972 34312 ft 447 kts 318°
2026-05-07 03:01 51.59280 -133.29463 34321 ft 447 kts 319°
2026-05-07 03:02 51.64438 -133.34888 34314 ft 446 kts 319°
2026-05-07 03:02 51.69623 -133.40358 34313 ft 444 kts 318°
2026-05-07 03:03 51.74769 -133.45804 34323 ft 446 kts 318°
2026-05-07 03:03 51.79943 -133.51289 34333 ft 444 kts 318°
2026-05-07 03:04 51.85111 -133.56787 34328 ft 443 kts 318°
2026-05-07 03:04 51.90268 -133.62289 34343 ft 445 kts 318°
2026-05-07 03:05 51.95420 -133.67796 34337 ft 442 kts 317°
2026-05-07 03:05 52.00542 -133.73292 34349 ft 442 kts 317°
2026-05-07 03:06 52.05624 -133.78757 34346 ft 442 kts 317°
2026-05-07 03:06 52.10759 -133.84294 34331 ft 440 kts 317°
2026-05-07 03:07 52.15849 -133.89798 34319 ft 442 kts 317°
2026-05-07 03:07 52.20964 -133.95346 34319 ft 442 kts 317°
2026-05-07 03:08 52.26047 -134.00871 34321 ft 439 kts 317°
2026-05-07 03:08 52.31126 -134.06410 34316 ft 439 kts 317°
2026-05-07 03:09 52.36211 -134.11974 34316 ft 442 kts 317°
2026-05-07 03:09 52.41304 -134.17557 34316 ft 441 kts 317°
2026-05-07 03:10 52.46374 -134.23131 34320 ft 442 kts 317°
2026-05-07 03:10 52.51459 -134.28737 34311 ft 440 kts 317°
2026-05-07 03:11 52.56553 -134.34376 34312 ft 444 kts 317°
2026-05-07 03:11 52.61649 -134.40025 34313 ft 442 kts 317°
2026-05-07 03:12 52.66705 -134.45648 34320 ft 442 kts 317°
2026-05-07 03:12 52.71773 -134.51300 34323 ft 441 kts 317°
2026-05-07 03:13 52.76831 -134.56959 34331 ft 443 kts 317°
2026-05-07 03:13 52.81932 -134.62683 34329 ft 444 kts 317°
2026-05-07 03:14 52.87016 -134.68399 34348 ft 440 kts 316°
2026-05-07 03:15 52.94611 -134.76979 34340 ft 444 kts 316°
2026-05-07 03:15 52.99654 -134.82690 34345 ft 441 kts 316°
2026-05-07 03:16 53.04735 -134.88472 34340 ft 449 kts 316°
2026-05-07 03:16 53.09856 -134.94305 34339 ft 441 kts 316°
2026-05-07 03:17 53.14938 -135.00120 34334 ft 445 kts 317°
2026-05-07 03:17 53.20021 -135.05953 34335 ft 449 kts 316°
2026-05-07 03:18 53.25157 -135.11856 34342 ft 445 kts 316°
2026-05-07 03:18 53.30219 -135.17699 34336 ft 449 kts 317°
2026-05-07 03:19 53.35341 -135.23624 34331 ft 446 kts 316°
2026-05-07 03:19 53.40403 -135.29500 34331 ft 448 kts 317°
2026-05-07 03:20 53.45529 -135.35467 34330 ft 446 kts 316°
2026-05-07 03:20 53.50615 -135.41406 34329 ft 449 kts 317°
2026-05-07 03:21 53.55694 -135.47351 34328 ft 447 kts 317°
2026-05-07 03:21 53.60761 -135.53301 34315 ft 443 kts 317°
2026-05-07 03:22 53.65854 -135.59303 34318 ft 446 kts 316°
2026-05-07 03:22 53.70904 -135.65269 34318 ft 445 kts 316°
2026-05-07 03:23 53.75939 -135.71237 34332 ft 447 kts 316°
2026-05-07 03:23 53.81020 -135.77277 34326 ft 446 kts 316°
2026-05-07 03:24 53.86062 -135.83287 34323 ft 448 kts 316°
2026-05-07 03:24 53.89820 -135.87781 34321 ft 444 kts 316°
2026-05-07 03:25 53.94554 -135.93455 34321 ft 448 kts 316°
2026-05-07 03:25 53.99576 -135.99538 34315 ft 443 kts 313°
2026-05-07 03:26 54.04179 -136.06436 34318 ft 440 kts 310°
2026-05-07 03:26 54.08653 -136.13336 34318 ft 438 kts 309°
2026-05-07 03:27 54.13201 -136.20380 34310 ft 440 kts 309°
2026-05-07 03:27 54.17691 -136.27350 34308 ft 438 kts 309°
2026-05-07 03:28 54.22185 -136.34351 34304 ft 438 kts 309°
2026-05-07 03:28 54.26675 -136.41367 34306 ft 439 kts 309°
2026-05-07 03:29 54.31196 -136.48454 34314 ft 440 kts 309°
2026-05-07 03:29 54.35690 -136.55519 34324 ft 439 kts 309°
2026-05-07 03:30 54.40144 -136.62541 34321 ft 437 kts 309°
2026-05-07 03:30 54.44638 -136.69652 34331 ft 437 kts 308°
2026-05-07 03:31 54.49114 -136.76758 34333 ft 441 kts 308°
2026-05-07 03:31 54.53587 -136.83876 34332 ft 439 kts 308°
2026-05-07 03:32 54.58026 -136.90965 34329 ft 438 kts 308°
2026-05-07 03:32 54.62526 -136.98175 34328 ft 441 kts 308°
2026-05-07 03:33 54.66998 -137.05360 34323 ft 439 kts 308°
2026-05-07 03:33 54.71456 -137.12549 34321 ft 441 kts 308°
2026-05-07 03:34 54.75953 -137.19823 34319 ft 443 kts 308°
2026-05-07 03:34 54.80444 -137.27106 34321 ft 441 kts 308°
2026-05-07 03:35 54.84934 -137.34418 34319 ft 448 kts 309°
2026-05-07 03:35 54.89469 -137.41818 34314 ft 445 kts 309°
2026-05-07 03:36 54.93955 -137.49168 34315 ft 446 kts 309°
2026-05-07 03:36 54.98439 -137.56535 34324 ft 445 kts 309°
2026-05-07 03:37 55.02979 -137.64024 34308 ft 448 kts 309°
2026-05-07 03:37 55.07457 -137.71426 34316 ft 446 kts 308°
2026-05-07 03:38 55.11971 -137.78923 34311 ft 450 kts 309°
2026-05-07 03:38 55.16449 -137.86374 34313 ft 446 kts 309°
2026-05-07 03:39 55.20972 -137.93932 34312 ft 450 kts 309°
2026-05-07 03:39 55.25481 -138.01488 34307 ft 450 kts 309°
2026-05-07 03:40 55.29968 -138.09032 34311 ft 451 kts 309°
2026-05-07 03:40 55.34470 -138.16626 34298 ft 449 kts 309°
2026-05-07 03:41 55.38956 -138.24219 34288 ft 450 kts 309°
2026-05-07 03:41 55.43462 -138.31873 34289 ft 450 kts 309°
2026-05-07 03:42 55.47935 -138.39494 34286 ft 450 kts 309°
2026-05-07 03:42 55.52424 -138.47170 34284 ft 450 kts 309°
2026-05-07 03:43 55.56895 -138.54840 34280 ft 451 kts 309°
2026-05-07 03:43 55.61379 -138.62555 34280 ft 450 kts 310°
2026-05-07 03:44 55.65809 -138.70206 34283 ft 449 kts 309°
2026-05-07 03:44 55.70280 -138.77953 34288 ft 450 kts 309°
2026-05-07 03:45 55.74713 -138.85661 34280 ft 450 kts 309°
2026-05-07 03:45 55.79176 -138.93446 34271 ft 450 kts 309°
2026-05-07 03:46 55.83648 -139.01274 34282 ft 453 kts 309°
2026-05-07 03:46 55.88099 -139.09091 34278 ft 451 kts 309°
2026-05-07 03:47 55.92523 -139.16888 34275 ft 451 kts 309°
2026-05-07 03:47 55.96968 -139.24751 34272 ft 452 kts 309°
2026-05-07 03:48 56.01424 -139.32657 34268 ft 451 kts 309°
2026-05-07 03:48 56.05825 -139.40489 34265 ft 449 kts 309°
2026-05-07 03:49 56.10260 -139.48416 34266 ft 451 kts 309°
2026-05-07 03:49 56.14669 -139.56320 34254 ft 450 kts 309°
2026-05-07 03:50 56.19061 -139.64220 34250 ft 449 kts 309°
2026-05-07 03:50 56.23418 -139.72086 34262 ft 449 kts 308°
2026-05-07 03:51 56.27658 -139.79764 34254 ft 448 kts 308°
2026-05-07 03:51 56.32032 -139.87715 34251 ft 448 kts 308°
2026-05-07 03:52 56.36386 -139.95657 34253 ft 448 kts 308°
2026-05-07 03:52 56.40755 -140.03650 34248 ft 447 kts 308°
2026-05-07 03:53 56.45091 -140.11614 34247 ft 447 kts 308°
2026-05-07 03:53 56.49429 -140.19609 34244 ft 448 kts 308°
2026-05-07 03:54 56.53760 -140.27617 34241 ft 446 kts 308°
2026-05-07 03:54 56.58092 -140.35654 34241 ft 445 kts 308°
2026-05-07 03:55 56.62395 -140.43668 34236 ft 446 kts 308°
2026-05-07 03:55 56.66696 -140.51704 34235 ft 445 kts 307°
2026-05-07 03:56 56.70989 -140.59753 34234 ft 445 kts 307°
2026-05-07 03:56 56.75280 -140.67827 34241 ft 444 kts 307°
2026-05-07 03:57 56.79549 -140.75890 34241 ft 443 kts 307°
2026-05-07 03:57 56.83825 -140.83990 34241 ft 443 kts 307°
2026-05-07 03:58 56.88064 -140.92052 34242 ft 444 kts 306°
2026-05-07 03:58 56.92244 -141.00027 34238 ft 442 kts 306°
2026-05-07 03:59 56.96501 -141.08180 34237 ft 444 kts 306°
2026-05-07 03:59 57.00720 -141.16286 34233 ft 441 kts 306°
2026-05-07 04:00 57.04951 -141.24446 34226 ft 441 kts 306°
2026-05-07 04:00 57.09088 -141.32451 34231 ft 442 kts 306°
2026-05-07 04:01 57.13316 -141.40665 34215 ft 443 kts 307°
2026-05-07 04:01 57.17525 -141.48865 34208 ft 442 kts 307°
2026-05-07 04:02 57.21744 -141.57117 34202 ft 444 kts 307°
2026-05-07 04:02 57.25982 -141.65434 34201 ft 444 kts 306°
2026-05-07 04:03 57.30163 -141.73668 34209 ft 443 kts 306°
2026-05-07 04:03 57.34383 -141.82013 34209 ft 443 kts 306°
2026-05-07 04:04 57.38553 -141.90285 34212 ft 443 kts 306°
2026-05-07 04:04 57.42751 -141.98644 34205 ft 443 kts 306°
2026-05-07 04:05 57.46939 -142.07013 34197 ft 445 kts 306°
2026-05-07 04:05 57.51110 -142.15379 34205 ft 444 kts 307°
2026-05-07 04:06 57.55294 -142.23801 34194 ft 445 kts 307°
2026-05-07 04:06 57.59491 -142.32281 34202 ft 447 kts 307°
2026-05-07 04:07 57.63710 -142.40834 34198 ft 447 kts 307°
2026-05-07 04:07 57.67906 -142.49374 34195 ft 449 kts 307°
2026-05-07 04:08 57.72081 -142.57899 34191 ft 448 kts 307°
2026-05-07 04:08 57.76279 -142.66507 34199 ft 449 kts 306°
2026-05-07 04:09 57.80476 -142.75145 34192 ft 448 kts 306°
2026-05-07 04:09 57.84647 -142.83757 34186 ft 446 kts 306°
2026-05-07 04:10 57.88795 -142.92358 34177 ft 447 kts 306°
2026-05-07 04:10 57.92945 -143.00993 34179 ft 448 kts 307°
2026-05-07 04:11 57.97098 -143.09670 34175 ft 449 kts 307°
2026-05-07 04:11 58.01291 -143.18460 34169 ft 450 kts 307°
2026-05-07 04:12 58.05453 -143.27217 34169 ft 449 kts 307°
2026-05-07 04:12 58.09581 -143.35938 34169 ft 449 kts 307°
2026-05-07 04:13 58.13723 -143.44717 34165 ft 448 kts 307°
2026-05-07 04:13 58.17872 -143.53551 34162 ft 448 kts 307°
2026-05-07 04:14 58.21990 -143.62349 34163 ft 448 kts 307°
2026-05-07 04:14 58.26090 -143.71141 34170 ft 447 kts 306°
2026-05-07 04:15 58.30191 -143.79970 34165 ft 447 kts 306°
2026-05-07 04:15 58.34283 -143.88814 34166 ft 448 kts 306°
2026-05-07 04:16 58.38391 -143.97725 34163 ft 448 kts 306°
2026-05-07 04:16 58.42474 -144.06615 34161 ft 447 kts 306°
2026-05-07 04:17 58.46555 -144.15536 34153 ft 447 kts 306°
2026-05-07 04:17 58.50631 -144.24480 34147 ft 447 kts 306°
2026-05-07 04:18 58.54699 -144.33440 34141 ft 447 kts 306°
2026-05-07 04:18 58.58748 -144.42395 34140 ft 447 kts 306°
2026-05-07 04:19 58.62774 -144.51332 34139 ft 447 kts 306°
2026-05-07 04:19 58.66829 -144.60368 34137 ft 448 kts 306°
2026-05-07 04:20 58.70866 -144.69397 34141 ft 445 kts 305°
2026-05-07 04:20 58.74868 -144.78389 34142 ft 447 kts 305°
2026-05-07 04:21 58.80883 -144.91962 34137 ft 446 kts 305°
2026-05-07 04:21 58.84916 -145.01108 34146 ft 446 kts 305°
2026-05-07 04:22 58.88927 -145.10240 34146 ft 448 kts 304°
2026-05-07 04:22 58.92928 -145.19383 34140 ft 448 kts 304°
2026-05-07 04:23 58.96916 -145.28534 34130 ft 448 kts 304°
2026-05-07 04:23 59.00925 -145.37769 34128 ft 447 kts 304°
2026-05-07 04:24 59.04920 -145.47009 34129 ft 448 kts 304°
2026-05-07 04:24 59.08908 -145.56270 34126 ft 449 kts 304°
2026-05-07 04:25 59.12891 -145.65556 34122 ft 449 kts 304°
2026-05-07 04:25 59.16873 -145.74876 34124 ft 448 kts 304°
2026-05-07 04:26 59.20849 -145.84219 34126 ft 448 kts 304°
2026-05-07 04:26 59.24820 -145.93591 34123 ft 449 kts 304°
2026-05-07 04:27 59.28773 -146.02956 34109 ft 450 kts 304°
2026-05-07 04:27 59.32729 -146.12366 34109 ft 450 kts 304°
2026-05-07 04:28 59.36684 -146.21809 34109 ft 450 kts 304°
2026-05-07 04:28 59.40706 -146.31146 34089 ft 453 kts 310°
2026-05-07 04:29 59.45813 -146.38719 34109 ft 467 kts 326°
2026-05-07 04:29 59.51975 -146.43085 34102 ft 482 kts 343°
2026-05-07 04:30 59.58538 -146.45482 34095 ft 481 kts 343°
2026-05-07 04:30 59.65064 -146.48366 34090 ft 481 kts 341°
2026-05-07 04:31 59.71469 -146.51537 34092 ft 478 kts 340°
2026-05-07 04:31 59.77907 -146.54918 34089 ft 478 kts 340°
2026-05-07 04:32 59.84258 -146.58356 34087 ft 477 kts 339°
2026-05-07 04:32 59.90638 -146.61876 34082 ft 478 kts 339°
2026-05-07 04:33 59.97062 -146.65460 34089 ft 478 kts 339°
2026-05-07 04:33 60.03403 -146.69026 34066 ft 477 kts 339°
2026-05-07 04:34 60.09774 -146.72632 34074 ft 478 kts 339°
2026-05-07 04:34 60.16131 -146.76250 34086 ft 477 kts 339°
2026-05-07 04:35 60.22477 -146.79875 34057 ft 476 kts 339°
2026-05-07 04:35 60.28849 -146.83531 34097 ft 476 kts 339°
2026-05-07 04:36 60.35159 -146.87169 34089 ft 475 kts 339°
2026-05-07 04:36 60.41481 -146.90828 34082 ft 475 kts 339°
2026-05-07 04:37 60.47858 -146.94536 34100 ft 477 kts 339°
2026-05-07 04:37 60.54191 -146.98230 34088 ft 477 kts 339°
2026-05-07 04:38 60.60484 -147.02626 34086 ft 472 kts 329°
2026-05-07 04:38 60.65768 -147.10010 33851 ft 456 kts 313°
2026-05-07 04:39 60.67918 -147.14625 33396 ft 446 kts 305°
2026-05-07 04:39 60.69759 -147.19641 33049 ft 438 kts 302°
2026-05-07 04:39 60.71505 -147.24593 32633 ft 433 kts 302°
2026-05-07 04:39 60.73251 -147.29565 32189 ft 429 kts 302°
2026-05-07 04:40 60.74984 -147.34520 31730 ft 426 kts 301°
2026-05-07 04:40 60.76680 -147.39378 31270 ft 422 kts 301°
2026-05-07 04:40 60.78369 -147.44225 30727 ft 419 kts 301°
2026-05-07 04:40 60.80040 -147.49033 30168 ft 414 kts 301°
2026-05-07 04:41 60.81691 -147.53790 29683 ft 406 kts 301°
2026-05-07 04:41 60.83300 -147.58437 29255 ft 398 kts 301°
2026-05-07 04:41 60.84875 -147.62993 28807 ft 388 kts 301°
2026-05-07 04:41 60.86406 -147.67430 28381 ft 378 kts 300°
2026-05-07 04:42 60.87908 -147.71796 27927 ft 369 kts 300°
2026-05-07 04:42 60.89363 -147.76030 27525 ft 360 kts 301°
2026-05-07 04:42 60.90778 -147.80158 27126 ft 352 kts 301°
2026-05-07 04:42 60.92214 -147.84367 26738 ft 366 kts 301°
2026-05-07 04:43 60.93665 -147.88625 26311 ft 369 kts 301°
2026-05-07 04:43 60.95129 -147.92915 25899 ft 364 kts 301°
2026-05-07 04:43 60.96579 -147.97172 25509 ft 360 kts 301°
2026-05-07 04:43 60.97991 -148.01327 25117 ft 359 kts 301°
2026-05-07 04:44 60.99425 -148.05556 24705 ft 357 kts 301°
2026-05-07 04:44 61.00832 -148.09711 24294 ft 355 kts 301°
2026-05-07 04:44 61.02231 -148.13850 23882 ft 353 kts 301°
2026-05-07 04:44 61.03619 -148.17967 23459 ft 352 kts 301°
2026-05-07 04:45 61.05018 -148.22122 23022 ft 351 kts 301°
2026-05-07 04:45 61.06388 -148.26199 22581 ft 350 kts 301°
2026-05-07 04:45 61.07780 -148.30350 22140 ft 348 kts 301°
2026-05-07 04:45 61.09141 -148.34413 21712 ft 347 kts 301°
2026-05-07 04:46 61.10514 -148.38519 21288 ft 346 kts 301°
2026-05-07 04:46 61.11862 -148.42564 20873 ft 346 kts 302°
2026-05-07 04:46 61.13216 -148.46631 20464 ft 344 kts 300°
2026-05-07 04:46 61.14315 -148.50975 20064 ft 340 kts 289°
2026-05-07 04:47 61.15151 -148.55496 19677 ft 339 kts 289°
2026-05-07 04:47 61.15968 -148.60065 19262 ft 338 kts 288°
2026-05-07 04:47 61.16766 -148.64575 18841 ft 336 kts 288°
2026-05-07 04:47 61.17573 -148.69168 18409 ft 335 kts 287°
2026-05-07 04:48 61.18360 -148.73654 17988 ft 334 kts 287°
2026-05-07 04:48 61.19145 -148.78145 17575 ft 334 kts 287°
2026-05-07 04:48 61.19935 -148.82669 17170 ft 331 kts 288°
2026-05-07 04:48 61.20711 -148.87131 16766 ft 330 kts 288°
2026-05-07 04:49 61.21481 -148.91563 16377 ft 329 kts 288°
2026-05-07 04:49 61.22257 -148.96046 15978 ft 327 kts 288°
2026-05-07 04:49 61.23016 -149.00439 15574 ft 327 kts 288°
2026-05-07 04:49 61.23780 -149.04871 15168 ft 326 kts 288°
2026-05-07 04:50 61.24402 -149.09319 14779 ft 323 kts 278°
2026-05-07 04:50 61.24726 -149.13915 14427 ft 322 kts 275°
2026-05-07 04:50 61.25001 -149.18497 14104 ft 322 kts 275°
2026-05-07 04:50 61.25268 -149.23042 13770 ft 320 kts 275°
2026-05-07 04:51 61.25532 -149.27617 13376 ft 318 kts 275°
2026-05-07 04:51 61.25792 -149.32164 13042 ft 317 kts 275°
2026-05-07 04:51 61.26045 -149.36675 12713 ft 316 kts 275°
2026-05-07 04:51 61.26293 -149.41156 12387 ft 315 kts 275°
2026-05-07 04:52 61.26540 -149.45682 12056 ft 314 kts 275°
2026-05-07 04:52 61.26781 -149.50191 11727 ft 314 kts 275°
2026-05-07 04:52 61.27021 -149.54663 11410 ft 313 kts 275°
2026-05-07 04:52 61.27257 -149.59148 11091 ft 311 kts 275°
2026-05-07 04:53 61.27489 -149.63614 10789 ft 310 kts 274°
2026-05-07 04:53 61.27714 -149.68027 10620 ft 309 kts 273°
2026-05-07 04:53 61.27936 -149.72447 10462 ft 309 kts 273°
2026-05-07 04:53 61.28155 -149.76909 10289 ft 309 kts 273°
2026-05-07 04:54 61.28370 -149.81343 10028 ft 310 kts 273°
2026-05-07 04:54 61.28578 -149.85733 9677 ft 308 kts 273°
2026-05-07 04:54 61.28785 -149.90146 9309 ft 302 kts 273°
2026-05-07 04:54 61.28983 -149.94418 8924 ft 296 kts 273°
2026-05-07 04:55 61.29175 -149.98601 8523 ft 291 kts 273°
2026-05-07 04:55 61.29365 -150.02850 8140 ft 301 kts 272°
2026-05-07 04:55 61.29554 -150.07190 7752 ft 300 kts 272°
2026-05-07 04:55 61.29742 -150.11440 7320 ft 297 kts 275°
2026-05-07 04:56 61.30392 -150.15472 6871 ft 296 kts 301°
2026-05-07 04:56 61.31675 -150.18751 6411 ft 293 kts 311°
2026-05-07 04:56 61.33063 -150.21800 5927 ft 288 kts 312°
2026-05-07 04:56 61.34415 -150.24731 5685 ft 274 kts 312°
2026-05-07 04:57 61.35826 -150.27214 5645 ft 260 kts 333°
2026-05-07 04:57 61.37491 -150.28409 5697 ft 246 kts 344°
2026-05-07 04:57 61.39122 -150.29286 5340 ft 242 kts 345°
2026-05-07 04:57 61.40735 -150.29608 4876 ft 235 kts 10°
2026-05-07 04:58 61.42197 -150.28244 4428 ft 231 kts 41°
2026-05-07 04:58 61.43126 -150.25577 3928 ft 228 kts 72°
2026-05-07 04:58 61.43298 -150.22401 3447 ft 223 kts 101°
2026-05-07 04:58 61.42726 -150.19516 3036 ft 214 kts 130°
2026-05-07 04:59 61.41643 -150.17499 2995 ft 207 kts 144°
2026-05-07 04:59 61.40494 -150.15688 2986 ft 207 kts 145°
2026-05-07 04:59 61.39393 -150.13786 2978 ft 208 kts 137°
2026-05-07 04:59 61.38273 -150.11980 2983 ft 198 kts 153°
2026-05-07 05:00 61.37067 -150.10973 2982 ft 180 kts 163°
2026-05-07 05:00 61.35865 -150.10288 2989 ft 176 kts 166°
2026-05-07 05:00 61.34731 -150.09692 2979 ft 160 kts 167°
2026-05-07 05:00 61.33700 -150.09140 2985 ft 150 kts 166°
2026-05-07 05:01 61.32692 -150.08575 2985 ft 149 kts 166°
2026-05-07 05:01 61.31681 -150.08006 2780 ft 151 kts 166°
2026-05-07 05:01 61.30679 -150.07442 2576 ft 145 kts 166°
2026-05-07 05:01 61.29708 -150.06898 2366 ft 147 kts 166°
2026-05-07 05:02 61.28724 -150.06345 2152 ft 146 kts 166°
2026-05-07 05:02 61.27752 -150.05800 1940 ft 146 kts 166°
2026-05-07 05:02 61.26764 -150.05246 1724 ft 145 kts 166°
2026-05-07 05:02 61.25793 -150.04703 1514 ft 147 kts 165°
2026-05-07 05:03 61.24815 -150.04153 1295 ft 144 kts 165°
2026-05-07 05:03 61.23843 -150.03610 1080 ft 147 kts 165°
2026-05-07 05:03 61.22882 -150.03072 864 ft 144 kts 165°
2026-05-07 05:03 61.21910 -150.02528 648 ft 146 kts 165°
2026-05-07 05:04 61.20955 -150.01996 428 ft 141 kts 165°
2026-05-07 05:04 61.20017 -150.01471 243 ft 141 kts 166°
2026-05-07 05:04 61.19102 -150.00967 166 ft 114 kts 165°
2026-05-07 05:04 61.18564 -150.00661 166 ft 48 kts 166°
2026-05-07 05:05 61.18328 -150.00532 166 ft 31 kts 164°
2026-05-07 05:05 61.18106 -150.00407 166 ft 36 kts 165°
2026-05-07 05:05 61.17872 -150.00183 166 ft 35 kts 134°
2026-05-07 05:05 61.17796 -149.99997 166 ft 3 kts 130°
2026-05-07 05:06 61.17782 -149.99962 166 ft 3 kts 118°
2026-05-07 05:06 61.17807 -149.99907 166 ft 8 kts
2026-05-07 05:06 61.17889 -149.99934 166 ft 14 kts 346°
2026-05-07 05:06 61.18003 -149.99999 166 ft 19 kts 345°
2026-05-07 05:07 61.18168 -150.00089 166 ft 24 kts 345°
2026-05-07 05:07 61.18332 -150.00183 166 ft 23 kts 345°
2026-05-07 05:07 61.18483 -150.00270 166 ft 21 kts 344°
2026-05-07 05:07 61.18618 -150.00349 166 ft 9 kts 344°
2026-05-07 05:08 61.18681 -150.00330 166 ft 12 kts 42°
2026-05-07 05:08 61.18718 -150.00119 166 ft 17 kts 74°
2026-05-07 05:08 61.18737 -149.99989 166 ft 1 kts 63°
2026-05-07 05:08 61.18764 -149.99973 166 ft 4 kts 357°
2026-05-07 05:09 61.18810 -150.00005 166 ft 7 kts 286°
2026-05-07 05:09 61.18811 -150.00060 166 ft 5 kts 264°
2026-05-07 05:09 61.18802 -150.00154 166 ft 4 kts 257°
2026-05-07 05:09 61.18801 -150.00163 166 ft 0 kts 257°
2026-05-07 05:13 61.18802 -150.00162 167 ft 0 kts 257°
2026-05-07 05:15 61.18801 -150.00163 166 ft 0 kts 257°